CDT,Max TemperatureF,Mean TemperatureF,Min TemperatureF,Max Dew PointF,MeanDew PointF,Min DewpointF,Max Humidity, Mean Humidity, Min Humidity, Max Sea Level PressureIn, Mean Sea Level PressureIn, Min Sea Level PressureIn, Max VisibilityMiles, Mean VisibilityMiles, Min VisibilityMiles, Max Wind SpeedMPH, Mean Wind SpeedMPH, Max Gust SpeedMPH,PrecipitationIn, CloudCover, Events, WindDirDegrees
2012-9-1,86,72,57,54,48,39,63,44,28,30.16,30.05,29.90,10,10,10,17,6,28,0.00,0,,130
2012-9-2,84,72,57,63,54,46,82,54,41,29.89,29.81,29.75,10,10,7,22,14,29,0.00,0,,174
2012-9-3,87,68,48,55,49,43,100,66,21,29.99,29.88,29.84,10,10,10,16,4,28,0.10,1,Rain,193
2012-9-4,84,68,51,64,50,39,94,58,23,29.86,29.80,29.76,10,10,4,16,2,22,0.00,2,Rain-Thunderstorm,283
2012-9-5,75,63,51,50,46,39,88,59,31,29.86,29.84,29.81,10,10,10,20,4,25,0.04,4,Rain,284
2012-9-6,62,52,42,54,48,39,94,83,68,29.98,29.92,29.86,10,10,5,9,0,,0.02,3,Rain,293
2012-9-7,64,52,39,48,44,34,94,75,49,30.07,30.04,29.97,10,10,7,17,4,22,0.00,5,,317
2012-9-8,64,52,39,46,42,37,100,74,40,30.13,29.98,29.88,10,10,10,24,9,33,0.00,4,,297
2012-9-9,73,53,33,50,39,30,93,65,27,30.20,30.11,29.97,10,7,0,12,2,,0.00,2,Fog,166
2012-9-10,84,68,53,48,45,43,72,46,25,29.96,29.74,29.62,10,10,10,25,12,34,0.00,0,,167
2012-9-11,82,63,44,54,43,28,64,44,21,29.92,29.70,29.61,10,10,10,20,7,26,0.00,0,Rain,236
2012-9-12,69,55,39,34,27,16,62,36,15,30.19,30.06,29.92,10,10,4,31,6,40,0.00,0,,255
2012-9-13,69,50,30,36,25,9,75,42,18,30.33,30.27,30.19,10,10,10,18,4,24,0.00,1,Rain,297
2012-9-14,73,52,30,52,29,14,86,46,18,30.35,30.30,30.20,10,10,7,8,1,18,0.00,0,,105
2012-9-15,80,64,48,43,35,28,63,37,16,30.20,29.99,29.81,10,10,10,14,8,21,0.00,0,,147
2012-9-16,66,54,42,46,39,34,93,61,32,30.07,29.97,29.82,10,10,10,17,6,22,0.00,1,Rain,341
2012-9-17,60,46,33,36,31,21,93,63,27,30.07,30.04,30.01,10,10,10,16,3,20,0.00,2,Rain,329
2012-9-18,55,40,24,34,28,18,100,63,33,30.04,29.92,29.67,10,10,10,18,4,23,0.00,2,,178
2012-9-19,57,52,44,46,38,32,82,60,44,29.83,29.67,29.53,10,10,5,26,16,34,0.01,5,Rain,280
2012-9-20,59,48,37,43,35,28,93,65,33,29.90,29.86,29.83,10,10,7,30,8,34,0.04,4,Rain,291
2012-9-21,57,46,35,43,33,25,100,71,33,30.01,29.87,29.78,10,10,4,25,5,38,0.04,5,Rain,313
2012-9-22,55,42,28,34,28,21,100,66,31,30.25,30.20,30.02,10,10,10,21,12,30,0.00,4,,334
2012-9-23,59,39,19,37,22,16,93,56,22,30.29,30.21,30.03,10,10,1,10,1,16,0.00,0,,251
2012-9-24,73,54,35,43,29,21,75,44,19,30.02,29.83,29.72,10,10,10,21,10,28,0.00,0,,263
2012-9-25,60,42,24,41,30,21,93,68,34,30.04,29.94,29.88,10,9,0,8,1,,0.00,1,Fog,319
2012-9-26,64,42,21,39,26,16,93,55,26,30.20,30.14,30.04,10,9,1,7,0,,0.00,0,,154
2012-9-27,71,52,33,34,31,27,81,47,23,30.24,30.18,30.13,10,10,3,13,6,17,0.00,0,,166
2012-9-28,80,62,44,39,33,28,62,39,21,30.15,30.12,30.08,10,10,7,14,5,,0.00,0,,206
2012-9-29,87,66,44,41,35,27,71,41,13,30.12,30.07,30.00,10,9,2,8,2,,0.00,0,,184
2012-9-30,84,68,53,46,39,34,63,40,16,30.00,29.91,29.82,10,10,10,21,8,25,0.00,0,,194